Flag for Greece Weather past 2 weeks in Athens, Greece

Now
72 °F

Clear.


Feels Like: 77 °F
Forecast: 70 / 87 °F
Wind: 8 mph from North

Location: Elefsis Airport

Current Time: Aug 31, 2014 at 4:26:35 AM

Latest Report: Aug 31, 2014 at 3:50 AM


Visibility: 10 mi

Pressure: 29.95 "Hg

Humidity: 50%

Dew point: 52 °F

Location of AthensLocation

Historic Weather in Athens — Graph

°F

Athens temperature yesterday

Maximum temperature yesterday: 88 °F (at 3:20 PM)
Minimum temperature yesterday: 73 °F (at 11:20 PM)
Average temperature yesterday: 80 °F

Past Weeks' High & Low Weather Summary

 TemperatureHumidityPressure
High104 °F (Aug 24, 2:50 PM)74% (Aug 16, 2:20 AM)30.01 "Hg (Aug 16, 2:20 AM)
Low68 °F (Aug 21, 6:20 AM)8% (Aug 24, 3:20 PM)29.65 "Hg (Aug 17, 4:50 PM)
Average84 °F40%29.87 "Hg
* Reported Aug 16 2:20 AM — Aug 31 2:50 AM, Athens, Weather by CustomWeather, © 2014

Note: Actual official high and low records may vary slightly from our data, if they occured in-between our weather recording intervals... More about our weather records

Advertising

Athens weather history for previous 24 hours

 ConditionsComfort  
Time TempWeatherWind HumidityBarometerVisibility
2:50 AM
Aug 31
72 °FClear.8 mph50%29.95 "Hg10 mi
2:20 AM72 °FClear.9 mph47%29.95 "Hg10 mi
1:50 AM72 °FClear.9 mph47%29.95 "Hg10 mi
1:20 AM73 °FClear.9 mph44%29.95 "Hg10 mi
12:50 AM72 °FClear.9 mph50%29.95 "Hg10 mi
12:20 AM73 °FClear.9 mph44%29.95 "Hg10 mi
11:50 PM
Aug 30
73 °FClear.5 mph41%29.95 "Hg10 mi
11:20 PM73 °FClear.6 mph38%29.95 "Hg10 mi
10:50 PM75 °FClear.6 mph36%29.95 "Hg10 mi
10:20 PM75 °FClear.6 mph31%29.95 "Hg10 mi
9:50 PM75 °FClear.7 mph31%29.95 "Hg10 mi
8:50 PM77 °FSunny.10 mph36%29.95 "Hg10 mi
8:20 PM79 °FSunny.10 mph32%29.95 "Hg10 mi
7:50 PM79 °FSunny.10 mph37%29.92 "Hg10 mi
7:20 PM81 °FSunny.12 mph34%29.92 "Hg10 mi
6:50 PM81 °FSunny.13 mph34%29.92 "Hg10 mi
6:20 PM82 °FSunny.16 mph32%29.92 "Hg10 mi
5:50 PM84 °FSunny.16 mph31%29.92 "Hg10 mi
5:20 PM84 °FSunny.7 mph33%29.92 "Hg10 mi
4:50 PM86 °FPassing clouds.20 mph31%29.92 "HgN/A
4:20 PM86 °FPassing clouds.18 mph31%29.92 "HgN/A
3:50 PM86 °FPassing clouds.17 mph29%29.95 "HgN/A
3:20 PM88 °FPassing clouds.17 mph29%29.95 "HgN/A
2:50 PM86 °FPassing clouds.18 mph31%29.95 "HgN/A
2:20 PM86 °FPassing clouds.17 mph31%29.95 "HgN/A
1:50 PM86 °FPassing clouds.17 mph31%29.95 "HgN/A
1:20 PM86 °FPassing clouds.15 mph31%29.95 "HgN/A
12:50 PM86 °FPassing clouds.16 mph31%29.98 "HgN/A
12:20 PM86 °FSunny.17 mph29%29.98 "Hg10 mi
11:50 AM84 °FSunny.18 mph31%29.98 "Hg10 mi
11:20 AM84 °FSunny.20 mph31%29.98 "Hg10 mi
10:50 AM84 °FSunny.12 mph31%29.98 "Hg10 mi
10:20 AM82 °FSunny.13 mph35%29.98 "Hg10 mi
9:50 AM81 °FSunny.15 mph39%29.98 "Hg10 mi
9:20 AM81 °FSunny.14 mph37%29.98 "Hg10 mi
8:50 AM79 °FSunny.16 mph39%29.98 "Hg10 mi
8:20 AM77 °FSunny.15 mph42%29.98 "Hg10 mi
7:50 AM77 °FClear.14 mph44%29.98 "Hg10 mi
7:20 AM75 °FClear.10 mph47%29.98 "Hg10 mi
6:50 AM75 °FClear.12 mph54%29.98 "Hg10 mi
6:20 AM75 °FClear.14 mph54%29.98 "Hg10 mi
5:50 AM75 °FClear.12 mph54%29.98 "Hg10 mi
4:20 AM75 °FClear.14 mph54%29.98 "Hg10 mi
Weather by CustomWeather, © 2014

See weather overviewHow to use our weather pages